{"data":{"norad_id":60542,"epoch":"2026-05-25T04:10:41.936736Z","epoch_age_seconds":63987,"freshness":"FRESH","line1":"1 60542U 24149CC  26145.17409649  .00005928  00000+0  43503-3 0  9996","line2":"2 60542  97.6654 224.5206 0003558 173.3284 186.7990 15.03852107 96812","mean_motion":15.03852107,"eccentricity":0.0003558,"inclination_deg":97.6654,"raan_deg":224.5206,"arg_perigee_deg":173.3284,"mean_anomaly_deg":186.799,"bstar":0.00043503,"rev_number":9681,"period_min":95.754096649346,"perigee_km":552.56468478023,"apogee_km":557.49832748919,"semimajor_km":6933.1685061347,"source":"CELESTRAK","updated_at":"2026-05-25T13:38:02.149491Z"}}